Location: Ammerl�gen
(47.2167°N, 9.6000°E)
Time: 04:15:00
(UTC+00:00)

Cosmos 2297 Rocket - Pass Details

Date: 21 April 2021
Orbit: 838 x 845 km, 71.0° (Epoch: 16 May)

Event Time Altitude Azimuth Distance (km) Brightness Sun altitude
Rises 20:56:18 0° 227° (SW) 3,383 5.3 -22.5°
Reaches altitude 10° 20:58:52 10° 234° (SW) 2,453 4.6 -22.8°
Maximum altitude 21:04:11 42° 306° (NW) 1,179 3.4 -23.3°
Drops below altitude 10° 21:09:34 10° 17° (NNE) 2,471 5.1 -23.8°
Sets 21:12:10 0° 24° (NNE) 3,411 5.8 -24.1°
